Regional Weather Roundup
Issued by NWS Little Rock, AR

Home | Current Version | Previous Version | Text Only | Print | Product List | Glossary On
Versions: 1 2 3 4 5 6 7 8 9 10 11 12 13 14 15 16 17 18 19 20 21 22 23 24 25 26 27 28 29 30 31 32 33 34 35 36 37 38 39 40 41 42 43 44 45 46 47 48 49 50
000
ASUS44 KLZK 271005
RWRLZK

WEATHER ROUNDUP FOR ARKANSAS
NATIONAL WEATHER SERVICE LITTLE ROCK AR
500 AM CDT SAT MAY 27 2017

NOTE: "FAIR" INDICATES FEW OR NO CLOUDS BELOW 12,000 FEET WITH NO
SIGNIFICANT WEATHER AND/OR OBSTRUCTIONS TO VISIBILITY.

ARZ001-003-010-029-271100-
NORTHWEST ARKANSAS

CITY           SKY/WX    TMP DP  RH WIND       PRES   REMARKS
FAYETTEVILLE   CLOUDY    75  73  93 S7        29.82S
FORT SMITH     CLOUDY    80  71  74 SW3       29.79S
HARRISON       CLOUDY    68  65  90 SE9       29.85F
BENTONVILLE    CLOUDY    75  70  83 CALM      29.83S
ROGERS         CLOUDY    73  69  87 E3        29.84S
SILOAM SPGS    CLOUDY    73  68  83 S5        29.81R
HIGHFILL       CLOUDY    75  73  93 SE3       29.82S
$$

ARZ004-005-016-271100-
NORTH CENTRAL ARKANSAS

CITY           SKY/WX    TMP DP  RH WIND       PRES   REMARKS
BATESVILLE     CLOUDY    75  72  88 W3        29.85R
FLIPPIN        CLOUDY    64  61  88 SW5       29.79F
MTN HOME       PTCLDY    63  62  97 VRB5      29.81F
$$

ARZ040-041-271100-
WEST CENTRAL ARKANSAS

CITY           SKY/WX    TMP DP  RH WIND       PRES   REMARKS
MENA           CLOUDY    79  77  94 SW5       29.86S
MOUNT IDA      CLOUDY    79  72  79 CALM      29.83S
$$

ARZ009-017-025-026-028-271100-
NORTHEAST ARKANSAS

CITY           SKY/WX    TMP DP  RH WIND       PRES   REMARKS
JONESBORO      CLOUDY    75  70  84 S10       29.83F
NEWPORT        CLOUDY    74  71  91 S10       29.83F
WALNUT RIDGE   CLOUDY    73  68  83 S3        29.86R THUNDER
BLYTHEVILLE    CLOUDY    74  70  87 S8        29.85S
$$

ARZ022-023-033-042-044-271100-
CENTRAL ARKANSAS

CITY           SKY/WX    TMP DP  RH WIND       PRES   REMARKS
LITTLE ROCK    CLOUDY    75  74  96 S13       29.85S
N LITTLE ROCK    N/A     75  72  89 SW8G16    29.84S
JACKSONVILLE   CLOUDY    76  74  92 S6        29.84F
CONWAY           N/A     77  73  88 S5        29.82R
SEARCY         CLOUDY    74  73  97 S8        29.85F
HOT SPRINGS    CLOUDY    78  74  87 SW9       29.86S
RUSSELLVILLE   CLOUDY    75  72  90 E3        29.82S
CLINTON        CLOUDY    72  70  94 CALM      29.85R FOG
$$

ARZ036-271100-
EAST ARKANSAS

CITY           SKY/WX    TMP DP  RH WIND       PRES   REMARKS
WEST MEMPHIS   MOCLDY    75  71  87 S8        29.87R
$$

ARZ050-053-066-070-073-271100-
SOUTHWEST ARKANSAS

CITY           SKY/WX    TMP DP  RH WIND       PRES   REMARKS
ARKADELPHIA    FAIR      74  72  93 S5        29.87S
CAMDEN         MOCLDY    75  70  83 S5        29.89R
TEXARKANA      CLOUDY    75  74  96 S9        29.88R
EL DORADO      CLOUDY    74  72  93 S8        29.90S
DE QUEEN       CLOUDY    78  75  90 SW6       29.83S
$$

ARZ056-057-069-271100-
SOUTHEAST ARKANSAS

CITY           SKY/WX    TMP DP  RH WIND       PRES   REMARKS
PINE BLUFF     CLOUDY    75  71  87 SW13      29.88R
STUTTGART      CLOUDY    75  63  64 SW13      29.88S
MONTICELLO     PTCLDY    74  70  87 SW6       29.90R

$$





USA.gov is the U.S. government's official web portal to all federal, state and local government web resources and services.